When you browse on this site, cookies collect data to enhance your experience and personalize the content and advertising you see.
Visit our Privacy Policy to learn more. By continuing to use the site, you agree to this use of cookies and data.
  • In Deutschland
  • Länderverzeichnis
  • Für 7 Tage
  • Wassertemperatur
  • Wetterkarte
  • Widgets
  • user-avatar
    Anmelden

    Stündliche Wetter Yalunina

    Heute, 16 Oktober, Mittwoch

    Zeit Temperatur Niederschläge Wind Luftdruck Luftfeuchtigkeit
    00:00 +2°C° 0 mm 2 m/S 736 mmHg 93%
    01:00 +1°C° 0 mm 3 m/S 736 mmHg 93%
    02:00 +1°C° 0 mm 3 m/S 737 mmHg 92%
    03:00 0°C° 0 mm 3 m/S 737 mmHg 91%
    04:00 -1°C° 0 mm 4 m/S 737 mmHg 90%
    05:00 -1°C° 0 mm 4 m/S 737 mmHg 90%
    06:00 -1°C° 0 mm 4 m/S 738 mmHg 90%
    07:00 -1°C° 0 mm 4 m/S 738 mmHg 90%
    08:00 -1°C° 0 mm 4 m/S 739 mmHg 91%
    09:00 -1°C° 0 mm 4 m/S 739 mmHg 92%
    10:00 0°C° 0 mm 4 m/S 740 mmHg 93%
    11:00 0°C° 0 mm 5 m/S 740 mmHg 89%
    12:00 +1°C° 0 mm 5 m/S 740 mmHg 85%
    13:00 +1°C° 0 mm 5 m/S 740 mmHg 82%
    14:00 +1°C° 0 mm 5 m/S 741 mmHg 80%
    15:00 +1°C° 0 mm 4 m/S 742 mmHg 79%
    16:00 +1°C° 0 mm 4 m/S 742 mmHg 78%
    17:00 +1°C° 0 mm 4 m/S 743 mmHg 81%
    18:00 0°C° 0 mm 5 m/S 743 mmHg 84%
    19:00 -1°C° 0 mm 5 m/S 744 mmHg 87%
    20:00 -1°C° 0 mm 5 m/S 744 mmHg 85%
    21:00 -1°C° 0 mm 5 m/S 745 mmHg 83%
    22:00 -2°C° 0 mm 4 m/S 745 mmHg 82%
    23:00 -2°C° 0 mm 4 m/S 746 mmHg 82%

    Morgen, 17 Oktober, Donnerstag

    Zeit Temperatur Niederschläge Wind Luftdruck Luftfeuchtigkeit
    00:00 -2°C° 0 mm 4 m/S 746 mmHg 83%
    01:00 -2°C° 0 mm 4 m/S 746 mmHg 84%
    02:00 -3°C° 0 mm 4 m/S 747 mmHg 84%
    03:00 -3°C° 0 mm 4 m/S 747 mmHg 83%
    04:00 -3°C° 0 mm 4 m/S 748 mmHg 83%
    05:00 -3°C° 0 mm 4 m/S 748 mmHg 82%
    06:00 -3°C° 0 mm 4 m/S 748 mmHg 81%
    07:00 -2°C° 0 mm 4 m/S 748 mmHg 80%
    08:00 -2°C° 0 mm 4 m/S 749 mmHg 77%
    09:00 -1°C° 0 mm 4 m/S 749 mmHg 75%
    10:00 -1°C° 0 mm 4 m/S 749 mmHg 72%
    11:00 -1°C° 0 mm 4 m/S 749 mmHg 70%
    12:00 0°C° 0 mm 4 m/S 749 mmHg 69%
    13:00 0°C° 0 mm 4 m/S 749 mmHg 67%
    14:00 -1°C° 0 mm 4 m/S 749 mmHg 68%
    15:00 0°C° 0 mm 3 m/S 749 mmHg 69%
    16:00 0°C° 0 mm 3 m/S 749 mmHg 70%
    17:00 +1°C° 0 mm 2 m/S 749 mmHg 72%
    18:00 +1°C° 0 mm 2 m/S 749 mmHg 75%
    19:00 +1°C° 0 mm 1 m/S 748 mmHg 78%
    20:00 -1°C° 0.2 mm 2 m/S 748 mmHg 84%
    21:00 -1°C° 0.2 mm 2 m/S 748 mmHg 90%
    22:00 -1°C° 0.2 mm 2 m/S 747 mmHg 96%
    23:00 -1°C° 0.5 mm 2 m/S 747 mmHg 96%

    übermorgen, 18 Oktober, Freitag

    Zeit Temperatur Niederschläge Wind Luftdruck Luftfeuchtigkeit
    00:00 -1°C° 0.5 mm 2 m/S 746 mmHg 97%
    01:00 -1°C° 0.5 mm 2 m/S 745 mmHg 97%
    02:00 -1°C° 0.4 mm 2 m/S 745 mmHg 97%
    03:00 -1°C° 0.4 mm 2 m/S 744 mmHg 97%
    04:00 -1°C° 0.4 mm 2 m/S 744 mmHg 97%
    05:00 -1°C° 0.3 mm 2 m/S 743 mmHg 97%
    06:00 -1°C° 0.3 mm 2 m/S 743 mmHg 97%
    07:00 -1°C° 0.3 mm 2 m/S 742 mmHg 98%
    08:00 -1°C° 0.2 mm 2 m/S 742 mmHg 97%
    09:00 +1°C° 0.2 mm 2 m/S 742 mmHg 97%
    10:00 +1°C° 0.2 mm 2 m/S 742 mmHg 96%
    11:00 +1°C° 0.3 mm 2 m/S 742 mmHg 97%
    12:00 0°C° 0.3 mm 3 m/S 742 mmHg 97%
    13:00 0°C° 0.3 mm 3 m/S 742 mmHg 97%
    14:00 -1°C° 0.2 mm 4 m/S 742 mmHg 97%
    15:00 -2°C° 0.2 mm 4 m/S 743 mmHg 96%
    16:00 -2°C° 0.2 mm 4 m/S 743 mmHg 96%
    17:00 -2°C° 0.1 mm 4 m/S 744 mmHg 95%
    18:00 -2°C° 0.1 mm 4 m/S 745 mmHg 93%
    19:00 -2°C° 0.1 mm 4 m/S 745 mmHg 91%
    20:00 -3°C° 0.1 mm 4 m/S 746 mmHg 90%
    21:00 -3°C° 0.1 mm 4 m/S 747 mmHg 89%
    22:00 -4°C° 0.1 mm 5 m/S 748 mmHg 88%
    23:00 -4°C° 0 mm 4 m/S 748 mmHg 87%

    19 Oktober, Samstag

    Zeit Temperatur Niederschläge Wind Luftdruck Luftfeuchtigkeit
    00:00 -4°C° 0 mm 4 m/S 749 mmHg 87%
    01:00 -4°C° 0 mm 4 m/S 749 mmHg 86%
    02:00 -5°C° 0 mm 3 m/S 750 mmHg 88%
    03:00 -6°C° 0 mm 3 m/S 750 mmHg 90%
    04:00 -7°C° 0 mm 3 m/S 751 mmHg 92%
    05:00 -7°C° 0 mm 3 m/S 751 mmHg 93%
    06:00 -7°C° 0 mm 2 m/S 752 mmHg 94%
    07:00 -7°C° 0 mm 2 m/S 752 mmHg 95%
    08:00 -6°C° 0 mm 2 m/S 753 mmHg 89%
    09:00 -5°C° 0 mm 2 m/S 753 mmHg 83%
    10:00 -4°C° 0 mm 2 m/S 754 mmHg 77%
    11:00 -3°C° 0 mm 2 m/S 754 mmHg 73%
    12:00 -2°C° 0 mm 2 m/S 754 mmHg 69%
    13:00 0°C° 0 mm 1 m/S 754 mmHg 65%
    14:00 0°C° 0 mm 1 m/S 754 mmHg 69%
    15:00 0°C° 0 mm 1 m/S 755 mmHg 72%
    16:00 -2°C° 0 mm 0 m/S 755 mmHg 75%
    17:00 -3°C° 0 mm 0 m/S 755 mmHg 78%
    18:00 -4°C° 0 mm 0 m/S 755 mmHg 81%
    19:00 -4°C° 0 mm 0 m/S 755 mmHg 84%
    20:00 -4°C° 0 mm 0 m/S 756 mmHg 85%
    21:00 -4°C° 0 mm 1 m/S 756 mmHg 86%
    22:00 -4°C° 0 mm 1 m/S 756 mmHg 87%
    23:00 -4°C° 0 mm 1 m/S 756 mmHg 88%

    20 Oktober, Sonntag

    Zeit Temperatur Niederschläge Wind Luftdruck Luftfeuchtigkeit
    00:00 -4°C° 0 mm 1 m/S 756 mmHg 88%
    01:00 -4°C° 0 mm 1 m/S 756 mmHg 89%
    02:00 -6°C° 0 mm 2 m/S 756 mmHg 89%
    03:00 -6°C° 0 mm 2 m/S 756 mmHg 90%
    04:00 -6°C° 0 mm 2 m/S 756 mmHg 90%
    05:00 -6°C° 0 mm 2 m/S 756 mmHg 91%
    06:00 -6°C° 0 mm 2 m/S 756 mmHg 91%
    07:00 -6°C° 0 mm 2 m/S 756 mmHg 91%
    08:00 -6°C° 0 mm 3 m/S 756 mmHg 86%
    09:00 -5°C° 0 mm 3 m/S 756 mmHg 81%
    10:00 -2°C° 0 mm 3 m/S 756 mmHg 76%
    11:00 -1°C° 0 mm 3 m/S 755 mmHg 74%
    12:00 0°C° 0 mm 3 m/S 755 mmHg 71%
    13:00 +1°C° 0 mm 3 m/S 755 mmHg 69%
    14:00 0°C° 0 mm 3 m/S 754 mmHg 73%
    15:00 0°C° 0 mm 3 m/S 754 mmHg 77%
    16:00 0°C° 0 mm 3 m/S 754 mmHg 80%
    17:00 -1°C° 0 mm 3 m/S 753 mmHg 82%
    18:00 -3°C° 0 mm 4 m/S 753 mmHg 83%
    19:00 -3°C° 0 mm 4 m/S 753 mmHg 84%
    20:00 -3°C° 0 mm 4 m/S 752 mmHg 82%
    21:00 -3°C° 0 mm 4 m/S 752 mmHg 80%
    22:00 -3°C° 0 mm 4 m/S 751 mmHg 78%
    23:00 -3°C° 0 mm 4 m/S 751 mmHg 79%

    21 Oktober, Montag

    Zeit Temperatur Niederschläge Wind Luftdruck Luftfeuchtigkeit
    00:00 -2°C° 0 mm 4 m/S 751 mmHg 80%
    01:00 -2°C° 0 mm 4 m/S 750 mmHg 81%
    02:00 -2°C° 0.2 mm 4 m/S 750 mmHg 83%
    03:00 -1°C° 0.2 mm 4 m/S 750 mmHg 85%
    04:00 -1°C° 0.2 mm 4 m/S 750 mmHg 87%
    05:00 -1°C° 0.5 mm 4 m/S 749 mmHg 89%
    06:00 -1°C° 0.5 mm 4 m/S 749 mmHg 91%
    07:00 -1°C° 0.5 mm 4 m/S 749 mmHg 92%
    08:00 0°C° 0.5 mm 4 m/S 749 mmHg 92%
    09:00 0°C° 0.5 mm 4 m/S 749 mmHg 92%
    10:00 0°C° 0.5 mm 4 m/S 748 mmHg 92%
    11:00 +1°C° 0.2 mm 4 m/S 748 mmHg 93%
    12:00 +2°C° 0.2 mm 3 m/S 749 mmHg 93%
    13:00 +2°C° 0.2 mm 3 m/S 749 mmHg 93%
    14:00 +2°C° 0.1 mm 3 m/S 749 mmHg 94%
    15:00 +3°C° 0.1 mm 2 m/S 749 mmHg 95%
    16:00 +3°C° 0.1 mm 2 m/S 749 mmHg 96%
    17:00 +2°C° 0.1 mm 2 m/S 749 mmHg 96%
    18:00 +2°C° 0.1 mm 2 m/S 749 mmHg 96%
    19:00 +2°C° 0.1 mm 2 m/S 750 mmHg 97%
    20:00 +3°C° 0 mm 1 m/S 750 mmHg 97%
    21:00 +3°C° 0 mm 1 m/S 750 mmHg 96%
    22:00 +2°C° 0 mm 1 m/S 750 mmHg 96%
    23:00 +2°C° 0 mm 1 m/S 750 mmHg 97%
    Mehr zeigen